﻿TIME_UTC_SECONDS;TIME_UTC_STR;AIR_TEMP;TRACK_TEMP;HUMIDITY;PRESSURE;WIND_SPEED;WIND_DIRECTION;RAIN;
1669554018;27/11/2022 13:00:18;14.7222;15.7;58;1008.74;4.24374;360;-1;
1669554083;27/11/2022 13:01:23;14.7222;15.8;58;1008.77;4.24374;360;-1;
1669554148;27/11/2022 13:02:28;14.7778;15.9;58;1008.74;4.24374;360;-1;
1669554213;27/11/2022 13:03:33;14.7778;15.9;57;1008.7;5.30467;360;-1;
1669554278;27/11/2022 13:04:38;14.8333;16;57;1008.74;5.30467;360;-1;
1669554343;27/11/2022 13:05:43;14.8333;16;57;1008.7;3.1828;360;-1;
1669554408;27/11/2022 13:06:48;14.8333;16.2;57;1008.67;3.1828;360;-1;
1669554473;27/11/2022 13:07:53;14.8333;16.2;57;1008.64;1.06093;360;-1;
1669554538;27/11/2022 13:08:58;14.8333;16.2;57;1008.64;3.1828;360;-1;
1669554603;27/11/2022 13:10:03;14.8889;16.4;57;1008.57;4.24374;360;-1;
1669554663;27/11/2022 13:11:03;14.8889;16.4;57;1008.57;4.24374;360;-1;
1669554728;27/11/2022 13:12:08;14.9444;16.5;57;1008.53;4.24374;360;-1;
1669554793;27/11/2022 13:13:13;14.9444;16.6;57;1008.5;0;360;-1;
1669554858;27/11/2022 13:14:18;14.9444;16.6;57;1008.53;3.1828;360;-1;
1669554923;27/11/2022 13:15:23;14.9444;16.6;57;1008.6;3.1828;360;-1;
1669554988;27/11/2022 13:16:28;15;16.7;57;1008.47;1.06093;360;-1;
1669555053;27/11/2022 13:17:33;15;16.8;57;1008.47;1.06093;360;-1;
1669555118;27/11/2022 13:18:38;15;16.8;57;1008.37;1.06093;360;-1;
1669555178;27/11/2022 13:19:38;15;16.7;57;1008.37;1.06093;360;-1;
1669555243;27/11/2022 13:20:43;15.0556;16.7;57;1008.37;1.06093;360;-1;
1669555308;27/11/2022 13:21:48;15.0556;16.7;56;1008.23;1.06093;360;-1;
1669555373;27/11/2022 13:22:53;15.1111;16.7;57;1008.3;3.1828;360;-1;
1669555468;27/11/2022 13:24:28;15.1667;16.6;57;1008.26;4.24374;360;-1;
1669555543;27/11/2022 13:25:43;15.1667;16.6;57;1008.26;1.06093;360;-1;
1669555608;27/11/2022 13:26:48;15.2778;16.6;57;1008.3;3.1828;360;-1;
1669555673;27/11/2022 13:27:53;15.2778;16.6;57;1008.23;2.12187;360;-1;
1669555733;27/11/2022 13:28:53;15.2778;16.5;57;1008.3;4.24374;360;-1;
1669555798;27/11/2022 13:29:58;15.2778;16.5;57;1008.3;3.1828;360;-1;
1669555858;27/11/2022 13:30:58;15.2778;16.5;57;1008.23;4.24374;360;-1;
1669555918;27/11/2022 13:31:58;15.2778;16.4;57;1008.3;3.1828;360;-1;
1669555983;27/11/2022 13:33:03;15.2778;16.4;57;1008.3;0;360;-1;
1669556043;27/11/2022 13:34:03;15.2778;16.4;57;1008.33;0;360;-1;
1669556108;27/11/2022 13:35:08;15.2778;16.3;58;1008.26;0;360;-1;
1669556173;27/11/2022 13:36:13;15.2778;16.3;57;1008.26;1.06093;360;-1;
1669556238;27/11/2022 13:37:18;15.3333;16.3;57;1008.33;4.24374;360;-1;
1669556303;27/11/2022 13:38:23;15.3333;16.3;58;1008.3;2.12187;344;-1;
1669556368;27/11/2022 13:39:28;15.3889;16.3;58;1008.3;3.1828;185;-1;
1669556433;27/11/2022 13:40:33;15.3889;16.4;58;1008.37;2.12187;186;-1;
1669556498;27/11/2022 13:41:38;15.4444;16.5;59;1008.26;0;360;-1;
1669556563;27/11/2022 13:42:43;15.5;16.5;59;1008.3;1.06093;211;-1;
1669556628;27/11/2022 13:43:48;15.4444;16.5;59;1008.23;0;139;-1;
1669556693;27/11/2022 13:44:53;15.5;16.5;59;1008.2;0;212;-1;
1669556753;27/11/2022 13:45:53;15.5556;16.5;59;1008.2;0;19;-1;
1669556818;27/11/2022 13:46:58;15.5556;16.6;59;1008.09;5.30467;202;-1;
1669556883;27/11/2022 13:48:03;15.6111;16.6;59;1008.13;5.30467;201;-1;
1669556943;27/11/2022 13:49:03;15.6111;16.6;59;1008.09;3.1828;210;-1;
1669557008;27/11/2022 13:50:08;15.5556;16.6;59;1008.13;4.24374;175;-1;
1669557073;27/11/2022 13:51:13;15.5556;16.6;60;1008.09;5.30467;173;-1;
1669557133;27/11/2022 13:52:13;15.5556;16.6;60;1008.09;5.30467;205;-1;
1669557198;27/11/2022 13:53:18;15.5;16.6;60;1008.13;2.12187;188;-1;
1669557258;27/11/2022 13:54:18;15.5;16.6;60;1008.03;1.06093;178;-1;
1669557318;27/11/2022 13:55:18;15.5;16.6;60;1008.06;2.12187;182;-1;
1669557383;27/11/2022 13:56:23;15.5;16.6;61;1008.13;0;145;-1;
1669557443;27/11/2022 13:57:23;15.5;16.7;61;1008.09;0;135;-1;
1669557508;27/11/2022 13:58:28;15.5;16.7;61;1008.06;4.24374;224;-1;
1669557573;27/11/2022 13:59:33;15.5556;16.8;61;1008.06;3.1828;188;-1;
1669557638;27/11/2022 14:00:38;15.5556;16.8;61;1008.03;2.12187;211;-1;
1669557703;27/11/2022 14:01:43;15.5556;16.8;61;1008.13;4.24374;222;-1;
1669557768;27/11/2022 14:02:48;15.5556;16.8;61;1008.03;2.12187;236;-1;
1669557833;27/11/2022 14:03:53;15.5556;16.7;62;1008.03;0;200;-1;
1669557898;27/11/2022 14:04:58;15.5556;16.8;62;1008.03;0;184;-1;
1669557958;27/11/2022 14:05:58;15.5556;16.8;62;1008.03;2.12187;77;-1;
1669558023;27/11/2022 14:07:03;15.5556;16.8;62;1007.92;1.06093;252;-1;
1669558088;27/11/2022 14:08:08;15.6111;16.7;62;1007.96;1.06093;111;-1;
1669558153;27/11/2022 14:09:13;15.6111;16.7;62;1007.99;0;110;-1;
1669558218;27/11/2022 14:10:18;15.6667;16.8;62;1007.96;0;111;-1;
1669558283;27/11/2022 14:11:23;15.6667;16.8;62;1008.03;4.24374;256;-1;
1669558348;27/11/2022 14:12:28;15.6667;16.8;62;1007.96;6.3656;233;-1;
1669558413;27/11/2022 14:13:33;15.7222;16.8;62;1008.03;1.06093;241;-1;
1669558478;27/11/2022 14:14:38;15.6667;16.8;62;1008.03;0;236;-1;
1669558543;27/11/2022 14:15:43;15.6667;16.8;62;1008.03;3.1828;201;-1;
1669558608;27/11/2022 14:16:48;15.7222;16.8;62;1007.96;1.06093;77;-1;
1669558668;27/11/2022 14:17:48;15.7222;16.8;62;1007.92;0;267;-1;
1669558733;27/11/2022 14:18:53;15.7222;16.8;62;1007.96;1.06093;268;-1;
1669558798;27/11/2022 14:19:58;15.7778;16.8;62;1008.03;3.1828;219;-1;
1669558858;27/11/2022 14:20:58;15.7778;16.8;62;1007.96;3.1828;232;-1;
1669558923;27/11/2022 14:22:03;15.7778;16.8;62;1007.96;2.12187;9;-1;
1669558988;27/11/2022 14:23:08;15.7778;16.8;62;1007.86;0;67;-1;
1669559048;27/11/2022 14:24:08;15.7778;16.9;62;1007.92;5.30467;232;-1;
1669559113;27/11/2022 14:25:13;15.7778;16.9;62;1007.96;3.1828;219;-1;
1669559173;27/11/2022 14:26:13;15.7778;16.9;62;1007.89;4.24374;226;-1;
1669559233;27/11/2022 14:27:13;15.7778;16.9;62;1007.89;4.24374;225;-1;
1669559298;27/11/2022 14:28:18;15.7778;16.9;62;1007.82;1.06093;227;-1;
1669559358;27/11/2022 14:29:18;15.7222;16.9;62;1007.82;3.1828;245;-1;
1669559423;27/11/2022 14:30:23;15.7222;16.9;62;1007.89;4.24374;259;-1;
1669559488;27/11/2022 14:31:28;15.7222;16.9;62;1007.89;2.12187;177;-1;
1669559553;27/11/2022 14:32:33;15.6667;16.9;62;1007.92;2.12187;190;-1;
1669559618;27/11/2022 14:33:38;15.6667;16.9;62;1007.82;5.30467;222;-1;
1669559683;27/11/2022 14:34:43;15.6667;16.9;62;1007.79;1.06093;223;-1;
1669559748;27/11/2022 14:35:48;15.6667;16.9;62;1007.82;1.06093;226;-1;
1669559813;27/11/2022 14:36:53;15.7222;16.9;63;1007.79;6.3656;223;-1;
1669559873;27/11/2022 14:37:53;15.7778;16.9;62;1007.69;4.24374;208;-1;
1669559933;27/11/2022 14:38:53;15.7778;16.8;62;1007.76;4.24374;217;-1;
1669559998;27/11/2022 14:39:58;15.7222;16.8;61;1007.79;4.24374;223;-1;
1669560058;27/11/2022 14:40:58;15.7222;16.7;62;1007.79;3.1828;209;-1;
1669560123;27/11/2022 14:42:03;15.7222;16.6;62;1007.72;2.12187;205;-1;
1669560188;27/11/2022 14:43:08;15.7222;16.5;62;1007.72;1.06093;207;-1;
1669560253;27/11/2022 14:44:13;15.7222;16.5;62;1007.72;3.1828;227;-1;
1669560318;27/11/2022 14:45:18;15.7222;16.4;62;1007.69;4.24374;205;-1;
1669560383;27/11/2022 14:46:23;15.6667;16.3;61;1007.69;5.30467;213;-1;
1669560448;27/11/2022 14:47:28;15.6111;16.3;62;1007.69;3.1828;223;-1;
1669560513;27/11/2022 14:48:33;15.5556;16.2;62;1007.69;4.24374;227;-1;
1669560573;27/11/2022 14:49:33;15.5556;16.2;62;1007.69;3.1828;202;-1;
1669560633;27/11/2022 14:50:33;15.5556;16.2;62;1007.59;0;239;-1;
1669560698;27/11/2022 14:51:38;15.5556;16.2;62;1007.62;1.06093;215;-1;
1669560758;27/11/2022 14:52:38;15.5556;16.2;62;1007.62;3.1828;207;-1;
1669560823;27/11/2022 14:53:43;15.5556;16.2;62;1007.59;5.30467;218;-1;
1669560888;27/11/2022 14:54:48;15.5556;16.1;63;1007.59;0;223;-1;
1669560953;27/11/2022 14:55:53;15.5556;16.1;63;1007.65;4.24374;219;-1;
1669561018;27/11/2022 14:56:58;15.5556;16.1;63;1007.59;2.12187;203;-1;
1669561083;27/11/2022 14:58:03;15.5556;16.1;63;1007.69;7.42654;229;-1;
1669561148;27/11/2022 14:59:08;15.5;16.1;64;1007.62;4.24374;232;-1;
1669561213;27/11/2022 15:00:13;15.5;16;64;1007.65;6.3656;208;-1;
1669561273;27/11/2022 15:01:13;15.4444;16;65;1007.65;3.1828;219;-1;
1669561338;27/11/2022 15:02:18;15.3889;16;65;1007.65;4.24374;227;-1;
